Location: Unspecified
(40.7945°N, 0.0000°E)
Time: 08:03:05
(UTC+00:00)

Vanguard 3 - Visible Passes

Search period start: 24 January 2021 00:00
Search period end: 03 February 2021 00:00
Orbit: 508 x 3261 km, 33.3° (Epoch: 23 January)

Date Brightness Start Highest point End Pass type
(mag) Time Alt. Az. Time Alt. Az. Time Alt. Az.
24 Jan 8.6 04:15:08 48° S 04:16:00 49° SSE 04:27:28 10° E visible
24 Jan 9.5 06:19:52 10° W 06:28:53 58° S 06:44:30 10° ESE visible
25 Jan 9.7 03:05:17 26° ESE 03:05:17 26° ESE 03:10:21 10° E visible
25 Jan 8.8 05:09:51 32° WSW 05:13:52 57° S 05:27:04 10° ESE visible
26 Jan 8.6 03:59:58 48° SSE 03:59:58 48° SSE 04:09:52 10° E visible
26 Jan 9.3 06:04:32 14° W 06:12:03 54° S 06:26:27 10° ESE visible
27 Jan 10.0 02:50:05 19° ESE 02:50:05 19° ESE 02:53:05 10° E visible
27 Jan 8.5 04:54:39 40° SW 04:57:14 54° S 05:09:16 10° ESE visible
28 Jan 8.9 03:44:46 41° SE 03:44:46 41° SE 03:52:21 10° E visible
28 Jan 9.2 05:49:18 18° WSW 05:55:20 49° S 06:08:24 10° ESE visible
29 Jan 10.3 02:34:52 13° E 02:34:52 13° E 02:35:56 10° E visible
29 Jan 8.3 04:39:26 46° SSW 04:40:43 50° S 04:51:32 10° ESE visible
30 Jan 9.2 03:29:33 31° ESE 03:29:33 31° ESE 03:34:58 10° ESE visible
30 Jan 9.0 05:34:07 23° WSW 05:38:42 43° S 05:50:23 10° SE visible
31 Jan 8.4 04:24:14 46° S 04:24:16 46° S 04:33:53 10° ESE visible
31 Jan 9.7 06:29:40 10° WSW 06:36:53 32° SSW 06:48:22 10° SE visible
01 Feb 9.6 03:14:23 22° ESE 03:14:23 22° ESE 03:17:41 10° ESE visible
01 Feb 8.8 05:18:56 26° SW 05:22:11 37° SSW 05:32:22 10° SE visible
02 Feb 8.7 04:09:06 37° SSE 04:09:06 37° SSE 04:16:18 10° ESE visible
02 Feb 9.6 06:14:00 10° WSW 06:20:17 26° SSW 06:29:51 10° SSE visible
